Alicia, AR

3:00 PM CDT on August 29, 2016 (GMT -0500)
Walnut Ridge Regional

Weather History for KARG - March, 2014

Change the Weather History Date:

Wednesday, March 12, 2014

  Actual Average Record
Temperature  
Mean Temperature 50 °F -  
Max Temperature 60 °F 54 °F 82 °F (2005)
Min Temperature 39 °F 37 °F 15 °F (1998)
Degree Days  
Heating Degree Days 16    
Moisture  
Dew Point 29 °F    
Average Humidity 51    
Maximum Humidity 88    
Minimum Humidity 19    
Precipitation  
Precipitation 0.00 in - - ()
Sea Level Pressure  
Sea Level Pressure 29.94 in    
Wind  
Wind Speed 21 mph (NW)    
Max Wind Speed 36 mph    
Max Gust Speed 44 mph    
Visibility 10 miles    
Events      
Averages and records for this station are not official NWS values.
T = Trace of Precipitation, MM = Missing Value Source: NWS Daily Summary

Daily Weather History Graph

Daily Weather History Graph

Search for Another Location

Airport or City:

Trip Planner

Search our weather history database for the weather conditions in past years. The results will help you decide how hot, cold, wet, or windy it might be!

Date:

Astronomy

Mar. 12, 2014 Rise Set
Actual Time 7:18 AM CDT 7:08 PM CDT
Civil Twilight 6:53 AM CDT 7:34 PM CDT
Nautical Twilight 6:23 AM CDT 8:03 PM CDT
Astronomical Twilight 5:53 AM CDT 8:33 PM CDT
Moon 3:44 PM CDT (3/12) 4:45 AM CDT (3/12)
Length of Visible Light 12h 40m
Length of Day
11h 49m
Waxing Gibbous, 85% of the Moon is Illuminated
Mar 12
Waxing Gibbous
Mar 16
Full
Mar 23
Last Quarter
Mar 30
New
Apr 7
First Quarter

Hourly Weather History & Observations

Time (CDT) Temp. Windchill Dew Point Humidity Pressure Visibility Wind Dir Wind Speed Gust Speed Precip Events Conditions
12:15 AM 60.8 °F - 55.4 °F 82% 29.54 in 10.0 mi SSW 15.0 mph - N/A   Clear
12:35 AM 60.8 °F - 55.4 °F 82% 29.54 in 10.0 mi SSW 18.4 mph - N/A   Clear
12:55 AM 60.8 °F - 55.4 °F 82% 29.53 in 10.0 mi SSW 17.3 mph - N/A   Partly Cloudy
1:15 AM 60.8 °F - 55.4 °F 82% 29.53 in 10.0 mi SSW 17.3 mph - N/A   Scattered Clouds
1:35 AM 60.8 °F - 55.4 °F 82% 29.53 in 10.0 mi SSW 15.0 mph - N/A   Scattered Clouds
1:55 AM 60.8 °F - 55.4 °F 82% 29.52 in 10.0 mi SSW 15.0 mph 20.7 mph N/A   Scattered Clouds
2:15 AM 60.8 °F - 55.4 °F 82% 29.53 in 10.0 mi SW 16.1 mph - N/A   Clear
2:35 AM 59.0 °F - 55.4 °F 88% 29.54 in 10.0 mi SW 15.0 mph - N/A   Partly Cloudy
2:55 AM 59.0 °F - 55.4 °F 88% 29.55 in 10.0 mi SW 15.0 mph - N/A   Mostly Cloudy
3:15 AM 60.8 °F - 50.0 °F 68% 29.57 in 10.0 mi West 25.3 mph 33.4 mph N/A   Overcast
3:35 AM 55.4 °F - 42.8 °F 63% 29.61 in 10.0 mi WNW 34.5 mph 42.6 mph N/A   Overcast
3:55 AM 51.8 °F - 37.4 °F 58% 29.62 in 10.0 mi WNW 27.6 mph 38.0 mph N/A   Overcast
4:15 AM 48.2 °F - 37.4 °F 66% 29.65 in 10.0 mi NW 34.5 mph 43.7 mph N/A   Overcast
4:35 AM 48.2 °F - 35.6 °F 62% 29.68 in 10.0 mi NW 35.7 mph 43.7 mph N/A   Overcast
4:55 AM 46.4 °F 37.2 °F 33.8 °F 62% 29.70 in 10.0 mi NW 29.9 mph 41.4 mph N/A   Overcast
5:15 AM 46.4 °F 36.4 °F 33.8 °F 62% 29.72 in 10.0 mi NW 35.7 mph 43.7 mph N/A   Overcast
5:35 AM 46.4 °F 36.9 °F 33.8 °F 62% 29.74 in 10.0 mi NW 32.2 mph 40.3 mph N/A   Overcast
5:55 AM 44.6 °F 34.2 °F 32.0 °F 61% 29.76 in 10.0 mi NW 33.4 mph 40.3 mph N/A   Overcast
6:15 AM 44.6 °F 35.3 °F 30.2 °F 57% 29.78 in 10.0 mi NNW 26.5 mph 35.7 mph N/A   Mostly Cloudy
6:35 AM 42.8 °F 32.3 °F 30.2 °F 61% 29.80 in 10.0 mi NNW 29.9 mph 35.7 mph N/A   Partly Cloudy
6:55 AM 42.8 °F 32.5 °F 28.4 °F 57% 29.82 in 10.0 mi NNW 28.8 mph 34.5 mph N/A   Clear
7:15 AM 42.8 °F 32.1 °F 28.4 °F 57% 29.85 in 10.0 mi NNW 31.1 mph 35.7 mph N/A   Mostly Cloudy
7:35 AM 42.8 °F 34.0 °F 30.2 °F 61% 29.87 in 10.0 mi NNW 20.7 mph 31.1 mph N/A   Mostly Cloudy
7:55 AM 42.8 °F 33.1 °F 30.2 °F 61% 29.89 in 10.0 mi NW 25.3 mph 29.9 mph N/A   Partly Cloudy
8:15 AM 42.8 °F 33.1 °F 30.2 °F 61% 29.91 in 10.0 mi NNW 25.3 mph 32.2 mph N/A   Partly Cloudy
8:35 AM 44.6 °F 35.7 °F 30.2 °F 57% 29.93 in 10.0 mi NW 24.2 mph 28.8 mph N/A   Partly Cloudy
8:55 AM 44.6 °F 35.5 °F 30.2 °F 57% 29.93 in 10.0 mi NNW 25.3 mph 33.4 mph N/A   Scattered Clouds
9:15 AM 44.6 °F 35.1 °F 30.2 °F 57% 29.95 in 10.0 mi NW 27.6 mph 31.1 mph N/A   Mostly Cloudy
9:35 AM 42.8 °F 32.3 °F 30.2 °F 61% 29.97 in 10.0 mi NW 29.9 mph 35.7 mph N/A   Overcast
9:55 AM 42.8 °F 32.7 °F 28.4 °F 57% 29.99 in 10.0 mi NW 27.6 mph - N/A   Overcast
10:15 AM 44.6 °F 35.3 °F 28.4 °F 53% 29.99 in 10.0 mi NNW 26.5 mph 32.2 mph N/A   Mostly Cloudy
10:35 AM 46.4 °F 38.1 °F 28.4 °F 50% 30.00 in 10.0 mi NNW 24.2 mph 34.5 mph N/A   Scattered Clouds
10:55 AM 46.4 °F 37.7 °F 28.4 °F 50% 30.02 in 10.0 mi NW 26.5 mph 35.7 mph N/A   Partly Cloudy
11:15 AM 46.4 °F 37.2 °F 26.6 °F 46% 30.02 in 10.0 mi NNW 29.9 mph 38.0 mph N/A   Partly Cloudy
11:35 AM 48.2 °F - 26.6 °F 43% 30.03 in 10.0 mi NW 27.6 mph 34.5 mph N/A   Partly Cloudy
11:55 AM 48.2 °F - 28.4 °F 46% 30.04 in 10.0 mi NW 25.3 mph 32.2 mph N/A   Partly Cloudy
12:15 PM 48.2 °F - 26.6 °F 43% 30.05 in 10.0 mi NW 25.3 mph 32.2 mph N/A   Partly Cloudy
12:35 PM 48.2 °F - 26.6 °F 43% 30.05 in 10.0 mi NW 19.6 mph - N/A   Partly Cloudy
12:55 PM 50.0 °F - 26.6 °F 40% 30.05 in 10.0 mi NW 23.0 mph 28.8 mph N/A   Partly Cloudy
1:15 PM 51.8 °F - 24.8 °F 35% 30.05 in 10.0 mi NW 21.9 mph 28.8 mph N/A   Clear
1:35 PM 51.8 °F - 24.8 °F 35% 30.06 in 10.0 mi NNW 25.3 mph 29.9 mph N/A   Partly Cloudy
1:55 PM 53.6 °F - 24.8 °F 33% 30.06 in 10.0 mi NW 24.2 mph 28.8 mph N/A   Scattered Clouds
2:15 PM 53.6 °F - 23.0 °F 30% 30.05 in 10.0 mi NW 28.8 mph 35.7 mph N/A   Partly Cloudy
2:35 PM 53.6 °F - 12.2 °F 19% 30.06 in 10.0 mi NW 19.6 mph 27.6 mph N/A   Clear
2:55 PM 53.6 °F - 14.0 °F 21% 30.05 in 10.0 mi NW 27.6 mph 31.1 mph N/A   Clear
3:15 PM 53.6 °F - 12.2 °F 19% 30.06 in 10.0 mi NNW 23.0 mph - N/A   Partly Cloudy
3:35 PM 53.6 °F - 14.0 °F 21% 30.06 in 10.0 mi NW 23.0 mph 33.4 mph N/A   Clear
3:55 PM 53.6 °F - 14.0 °F 21% 30.06 in 10.0 mi NW 25.3 mph 32.2 mph N/A   Clear
4:15 PM 53.6 °F - 14.0 °F 21% 30.07 in 10.0 mi NW 21.9 mph 27.6 mph N/A   Clear
4:35 PM 53.6 °F - 14.0 °F 21% 30.06 in 10.0 mi NW 25.3 mph 31.1 mph N/A   Clear
4:55 PM 53.6 °F - 12.2 °F 19% 30.07 in 10.0 mi NNW 19.6 mph 24.2 mph N/A   Clear
5:15 PM 53.6 °F - 15.8 °F 22% 30.08 in 10.0 mi NW 21.9 mph 27.6 mph N/A   Clear
5:35 PM 53.6 °F - 15.8 °F 22% 30.08 in 10.0 mi NW 19.6 mph 25.3 mph N/A   Clear
5:55 PM 53.6 °F - 15.8 °F 22% 30.08 in 10.0 mi NNW 16.1 mph 27.6 mph N/A   Clear
6:15 PM 51.8 °F - 14.0 °F 22% 30.09 in 10.0 mi NW 20.7 mph 26.5 mph N/A   Clear
6:35 PM 51.8 °F - 15.8 °F 24% 30.10 in 10.0 mi NW 19.6 mph - N/A   Clear
6:55 PM 48.2 °F - 17.6 °F 30% 30.10 in 10.0 mi NNW 12.7 mph - N/A   Clear
7:15 PM 48.2 °F - 23.0 °F 37% 30.11 in 10.0 mi NW 13.8 mph 18.4 mph N/A   Clear
7:35 PM 46.4 °F 41.1 °F 24.8 °F 43% 30.12 in 10.0 mi NW 11.5 mph - N/A   Clear
7:55 PM 44.6 °F 40.2 °F 26.6 °F 49% 30.13 in 10.0 mi NNW 8.1 mph - N/A   Clear
8:15 PM 42.8 °F 38.0 °F 26.6 °F 53% 30.14 in 10.0 mi NNW 8.1 mph - N/A   Clear
8:35 PM 42.8 °F 38.0 °F 26.6 °F 53% 30.15 in 10.0 mi NW 8.1 mph - N/A   Clear
8:55 PM 42.8 °F 38.0 °F 26.6 °F 53% 30.16 in 10.0 mi NNW 8.1 mph - N/A   Clear
9:15 PM 42.8 °F 38.0 °F 26.6 °F 53% 30.17 in 10.0 mi NNW 8.1 mph - N/A   Clear
9:35 PM 41.0 °F 35.8 °F 24.8 °F 53% 30.18 in 10.0 mi NNW 8.1 mph - N/A   Clear
9:55 PM 39.2 °F 34.2 °F 26.6 °F 61% 30.18 in 10.0 mi NNW 6.9 mph - N/A   Clear
10:15 PM 41.0 °F 38.0 °F 28.4 °F 61% 30.19 in 10.0 mi NNW 4.6 mph - N/A   Partly Cloudy
10:35 PM 41.0 °F 39.0 °F 24.8 °F 53% 30.18 in 10.0 mi NW 3.5 mph - N/A   Partly Cloudy
10:55 PM 42.8 °F 41.1 °F 23.0 °F 46% 30.17 in 10.0 mi West 3.5 mph - N/A   Clear
11:15 PM 39.2 °F 35.0 °F 23.0 °F 52% 30.17 in 10.0 mi SW 5.8 mph - N/A   Clear
11:35 PM 39.2 °F 35.9 °F 24.8 °F 56% 30.17 in 10.0 mi WSW 4.6 mph - N/A   Clear
11:55 PM 41.0 °F 38.0 °F 23.0 °F 49% 30.17 in 10.0 mi West 4.6 mph - N/A   Clear